| time (UTC) | temp F | wind direction | speed knots | gust knots | rain 1hr in | rain 24hr in | rain mn in | humidity % | barometer mb |
| 20260503182023 | 64 | 102 | 0.0 | 0.9 | 0.00 | 0.00 | 0.00 | 54 | 1016.9 |
| 20260503175029 | 65 | 0.0 | 0.0 | 0.00 | 0.00 | 0.00 | 54 | 1016.9 | |
| 20260503172033 | 66 | 93 | 2.6 | 3.5 | 0.00 | 0.00 | 0.00 | 54 | 1016.8 |
| 20260503072019 | 67 | 230 | 1.7 | 3.5 | 0.00 | 0.00 | 0.00 | 46 | 1020.4 |
| 20260503055032 | 61 | 232 | 0.0 | 1.7 | 0.00 | 0.00 | 0.00 | 48 | 1020.1 |
| 20260503052036 | 57 | 230 | 3.5 | 6.1 | 0.00 | 0.00 | 0.00 | 50 | 1020.0 |
| 20260503045019 | 58 | 234 | 3.5 | 7.0 | 0.00 | 0.00 | 0.00 | 49 | 1019.8 |
| 20260503042022 | 54 | 230 | 2.6 | 7.0 | 0.00 | 0.00 | 0.00 | 56 | 1019.7 |
| 20260503035026 | 53 | 230 | 2.6 | 5.2 | 0.00 | 0.00 | 0.00 | 57 | 1019.8 |
| 20260503032029 | 52 | 228 | 1.7 | 3.5 | 0.00 | 0.00 | 0.00 | 60 | 1019.8 |
| 20260503025032 | 51 | 228 | 0.9 | 2.6 | 0.00 | 0.00 | 0.00 | 62 | 1019.9 |
| 20260503022036 | 53 | 233 | 2.6 | 6.1 | 0.00 | 0.00 | 0.00 | 60 | 1020.0 |
| 20260503015019 | 53 | 235 | 3.5 | 6.1 | 0.00 | 0.00 | 0.00 | 60 | 1020.1 |
| 20260503012022 | 54 | 236 | 3.5 | 6.1 | 0.00 | 0.00 | 0.00 | 61 | 1020.2 |
| 20260503005027 | 52 | 226 | 0.9 | 1.7 | 0.00 | 0.00 | 0.00 | 64 | 1020.5 |
| 20260503002032 | 54 | 227 | 0.9 | 1.7 | 0.00 | 0.00 | 0.00 | 60 | 1020.8 |
| 20260502235018 | 54 | 231 | 1.7 | 2.6 | 0.00 | 0.00 | 0.00 | 59 | 1020.9 |
| 20260502232023 | 53 | 228 | 0.0 | 0.9 | 0.00 | 0.00 | 0.00 | 60 | 1021.2 |
| 20260502225028 | 54 | 229 | 0.9 | 1.7 | 0.00 | 0.00 | 0.00 | 58 | 1021.4 |
| 20260502222032 | 55 | 229 | 0.0 | 0.9 | 0.00 | 0.00 | 0.00 | 55 | 1021.6 |
| 20260502215035 | 55 | 337 | 0.0 | 0.9 | 0.00 | 0.00 | 0.00 | 57 | 1021.8 |
| 20260502212018 | 55 | 21 | 0.0 | 0.9 | 0.00 | 0.00 | 0.00 | 54 | 1021.8 |
| 20260502205022 | 56 | 0.0 | 0.0 | 0.00 | 0.00 | 0.00 | 50 | 1021.8 | |
| 20260502202025 | 56 | 22 | 0.0 | 0.9 | 0.00 | 0.00 | 0.00 | 50 | 1021.8 |
| 20260502195028 | 54 | 0.0 | 0.0 | 0.00 | 0.00 | 0.00 | 51 | 1021.9 | |
| 20260502192032 | 56 | 0.0 | 0.0 | 0.00 | 0.00 | 0.00 | 47 | 1021.7 | |
| 20260502185036 | 59 | 27 | 0.0 | 0.9 | 0.00 | 0.00 | 0.00 | 47 | 1021.6 |